Location: Evergreen Manor
(41.4083°N, 81.4939°W)
Time: 08:35:52
(UTC+00:00)

S3M - Pass Details

Date: 11 December 2019
Orbit: 948 x 1005 km, 83.0° (Epoch: 17 January)

Event Time Altitude Azimuth Distance (km) Brightness Sun altitude
Rises 00:26:04 0° 351° (N) 3,679 7.0 -27.2°
Reaches altitude 10° 00:28:36 10° 351° (N) 2,719 6.3 -27.7°
Maximum altitude 00:34:49 82° 265° (W) 974 3.9 -28.9°
Drops below altitude 10° 00:40:55 10° 178° (S) 2,670 6.3 -30.0°
Sets 00:43:23 0° 178° (S) 3,608 7.0 -30.5°
